Zurück zum Katalog

ONEWEB-0374

AktivKommunikationPO
NORAD 49300·PAYLOAD·🇬🇧 United Kingdom

Gestartet Oct 14, 2021 von Vostochny Cosmodrome

Loading…

Nächste Überflüge (nächste 24 Stunden)

TLE

AktuellSource: CelesTrak SupGP

Epoche: Sep 14, 2026, 17:32 UTC

1 49300C 21090X   26257.73073333 -.00001589  00000+0 -42909-2 0  2576
2 49300  87.8914 271.8438 0002342 103.9899 357.4574 13.14506821    15

Verfolge ONEWEB-0374 in Echtzeit mit AllMySat

Download on the App Store